This demonstration page uses our WeatherBlox Daily Observations layout. Learn more.

Left ArrowRight Arrow

31.31129, -92.44514

Hourly Observations for August 1, 2018

Temp ( °F °C ) Dew Point ( °F °C ) Humidity (%) Winds ( mph kmh ) Pressure ( in mb ) Visibility ( mi km ) Precip ( " mm )
12:53 am 00:53 Clear 73 22.8 71 21.7 94 94 N 5 7 29.97 1015 9 14 0.00 0.00
1:53 am 01:53 Clear with Mist and Fog 71 21.7 70 21.1 96 96 SSW 5 7 29.97 1015 6 10 0.00 0.00
2:53 am 02:53 Clear with Mist and Fog 71 21.7 70 21.1 96 96 NNW 3 6 29.96 1015 6 10 0.00 0.00
3:53 am 03:53 Clear with Mist and Fog 70 21.1 69 20.6 97 97 Calm 29.96 1015 3 5 0.00 0.00
4:02 am 04:02 Mostly Clear with Mist and Fog 70 21.1 69 20.6 97 97 Calm 29.94 1014 5 8 0.00 0.00
4:33 am 04:33 Partly Cloudy with Mist and Fog 70 21.1 69 20.6 97 97 Calm 29.97 1015 2 3 0.00 0.00
4:36 am 04:36 Mostly Cloudy with Mist and Fog 70 21.1 69 20.6 97 97 Calm 29.97 1015 1 1 0.00 0.00
4:41 am 04:41 Mostly Cloudy with Fog 70 21.1 69 20.6 97 97 Calm 29.94 1014 0 0 0.00 0.00
4:53 am 04:53 Mostly Cloudy with Fog 69 20.6 69 20.6 100 100 Calm 29.96 1015 0 0 0.00 0.00
5:35 am 05:35 Mostly Cloudy with Fog 69 20.6 68 20 96 96 Calm 29.97 1015 1 1 0.00 0.00
5:51 am 05:51 Mostly Cloudy with Fog 70 21 68 20 94 94 Calm 29.97 1015 0 0 0.00 0.00
5:53 am 05:53 Mostly Cloudy with Fog 69 20.6 68 20 96 96 Calm 29.97 1015 0 0 0.00 0.00
6:00 am 06:00 Mostly Cloudy with Mist and Fog 69 20.6 68 20 96 96 Calm 29.97 1015 1 2 0.00 0.00
6:03 am 06:03 Mostly Cloudy with Mist and Fog 69 20.6 68 20 96 96 Calm 29.97 1015 3 5 0.00 0.00
6:11 am 06:11 Partly Cloudy with Mist and Fog 68 20 68 20 100 100 Calm 29.97 1015 3 4 0.00 0.00
6:34 am 06:34 Sunny with Mist and Fog 68 20 68 20 100 100 Calm 29.97 1015 4 6 0.00 0.00
6:53 am 06:53 Sunny with Mist and Fog 68 20 67 19.4 96 96 NNW 5 7 29.97 1015 5 8 0.00 0.00
7:53 am 07:53 Sunny 71 21.7 68 20 90 90 Calm 29.98 1015 10 16 0.00 0.00
8:53 am 08:53 Sunny 75 23.9 70 21.1 84 84 Calm 29.99 1016 10 16 0.00 0.00
9:53 am 09:53 Sunny 79 26.1 70 21.1 74 74 Calm 29.99 1016 10 16 0.00 0.00
10:53 am 10:53 Mostly Sunny 84 28.9 72 22.2 67 67 VRB 5 7 29.99 1016 10 16 0.00 0.00
11:26 am 11:26 Mostly Cloudy 85 29.4 71 21.7 63 63 N 8 13 29.97 1015 10 16 0.00 0.00
11:34 am 11:34 Partly Cloudy 86 30 71 21.7 61 61 N 8 13 29.97 1015 10 16 0.00 0.00
11:53 am 11:53 Mostly Sunny 85 29.4 71 21.7 63 63 N 10 17 29.98 1015 10 16 0.00 0.00
12:53 pm 12:53 Mostly Sunny 88 31.1 70 21.1 55 55 N 9 15 29.97 1015 10 16 0.00 0.00
1:53 pm 13:53 Sunny 89 31.7 68 20 50 50 VRB 6 9 29.96 1014 10 16 0.00 0.00
2:53 pm 14:53 Sunny 90 32.2 65 18.3 44 44 N 12 19 29.94 1014 10 16 0.00 0.00
3:53 pm 15:53 Sunny 92 33.3 65 18.3 41 41 N 7 11 29.93 1014 10 16 0.00 0.00
4:53 pm 16:53 Sunny 92 33.3 65 18.3 41 41 NNE 6 9 29.92 1013 10 16 0.00 0.00
5:53 pm 17:53 Sunny 91 32.8 64 17.8 41 41 NNE 9 15 29.91 1013 10 16 0.00 0.00
6:53 pm 18:53 Sunny 87 30.6 67 19.4 51 51 ENE 12 19 29.92 1013 10 16 0.00 0.00
7:53 pm 19:53 Sunny 83 28.3 67 19.4 59 59 ENE 5 7 29.94 1014 10 16 0.00 0.00
8:53 pm 20:53 Clear 80 26.7 68 20 67 67 ENE 3 6 29.95 1014 10 16 0.00 0.00
9:53 pm 21:53 Clear 78 25.6 69 20.6 74 74 ENE 5 7 29.97 1015 10 16 0.00 0.00
10:53 pm 22:53 Clear 76 24.4 68 20 77 77 NE 3 6 29.98 1015 10 16 0.00 0.00
11:53 pm 23:53 Clear 74 23.3 69 20.6 85 85 ENE 5 7 29.99 1016 10 16 0.00 0.00

Powered by AerisWeather